| time (UTC) | temp F | wind direction | speed MPH | gust MPH | rain 1hr in | rain 24hr in | rain mn in | humidity % | barometer mb |
| 20260505073051 | 49 | 0 | 0.0 | 0.0 | 0.00 | 0.00 | 0.00 | 70 | 1009.2 |
| 20260505072543 | 49 | 0 | 0.0 | 0.0 | 0.00 | 0.00 | 0.00 | 69 | 1008.9 |
| 20260505072041 | 49 | 0 | 0.0 | 0.0 | 0.00 | 0.00 | 0.00 | 69 | 1008.9 |
| 20260505071555 | 49 | 0 | 0.0 | 0.0 | 0.00 | 0.00 | 0.00 | 68 | 1008.8 |
| 20260505071042 | 49 | 0 | 0.0 | 0.0 | 0.00 | 0.00 | 0.00 | 67 | 1008.7 |
| 20260505070542 | 49 | 0 | 0.0 | 0.0 | 0.00 | 0.00 | 0.00 | 66 | 1009.1 |
| 20260505070052 | 49 | 0 | 0.0 | 0.0 | 0.00 | 0.00 | 0.00 | 66 | 1008.8 |
| 20260505065542 | 49 | 0 | 0.0 | 0.0 | 0.00 | 0.00 | 0.00 | 66 | 1008.9 |
| 20260505065041 | 50 | 0 | 0.0 | 0.0 | 0.00 | 0.00 | 0.00 | 66 | 1008.8 |
| 20260505064555 | 50 | 0 | 0.0 | 0.0 | 0.00 | 0.00 | 0.00 | 65 | 1008.8 |
| 20260505064046 | 50 | 0 | 0.0 | 2.0 | 0.00 | 0.00 | 0.00 | 64 | 1009.0 |
| 20260505063542 | 50 | 0 | 0.0 | 2.0 | 0.00 | 0.00 | 0.00 | 62 | 1008.7 |
| 20260505063119 | 51 | 48 | 0.0 | 4.0 | 0.00 | 0.00 | 0.00 | 60 | 1009.0 |
| 20260505062542 | 51 | 0 | 1.0 | 4.0 | 0.00 | 0.00 | 0.00 | 59 | 1009.2 |
| 20260505062042 | 51 | 54 | 1.0 | 3.0 | 0.00 | 0.00 | 0.00 | 58 | 1009.4 |
| 20260505061623 | 51 | 0 | 0.0 | 4.0 | 0.00 | 0.00 | 0.00 | 58 | 1009.4 |
| 20260505061041 | 51 | 57 | 1.0 | 4.0 | 0.00 | 0.00 | 0.00 | 58 | 1008.8 |
| 20260505060541 | 51 | 57 | 1.0 | 4.0 | 0.00 | 0.00 | 0.00 | 57 | 1008.9 |
| 20260505060105 | 51 | 0 | 0.0 | 4.0 | 0.00 | 0.00 | 0.00 | 58 | 1009.0 |
| 20260505055542 | 51 | 36 | 0.0 | 4.0 | 0.00 | 0.00 | 0.00 | 56 | 1009.1 |
| 20260505055046 | 51 | 90 | 1.0 | 5.0 | 0.00 | 0.00 | 0.00 | 56 | 1009.0 |
| 20260505054606 | 52 | 46 | 1.0 | 5.0 | 0.00 | 0.00 | 0.00 | 56 | 1009.1 |
| 20260505054043 | 52 | 38 | 1.0 | 5.0 | 0.00 | 0.00 | 0.00 | 55 | 1008.9 |
| 20260505053542 | 52 | 35 | 2.0 | 5.0 | 0.00 | 0.00 | 0.00 | 55 | 1009.0 |
| 20260505053059 | 52 | 44 | 2.0 | 5.0 | 0.00 | 0.00 | 0.00 | 54 | 1008.8 |
| 20260505052542 | 52 | 44 | 2.0 | 8.0 | 0.00 | 0.00 | 0.00 | 53 | 1008.7 |
| 20260505052043 | 52 | 39 | 3.0 | 8.0 | 0.00 | 0.00 | 0.00 | 54 | 1008.7 |
| 20260505051612 | 52 | 42 | 2.0 | 5.0 | 0.00 | 0.00 | 0.00 | 52 | 1008.9 |
| 20260505051044 | 52 | 51 | 2.0 | 6.0 | 0.00 | 0.00 | 0.00 | 53 | 1009.2 |
| 20260505050542 | 52 | 44 | 2.0 | 6.0 | 0.00 | 0.00 | 0.00 | 54 | 1009.2 |
| 20260505041552 | 55 | 280 | 2.0 | 7.0 | 0.00 | 0.00 | 0.00 | 42 | 1009.3 |
| 20260505041041 | 55 | 46 | 2.0 | 6.0 | 0.00 | 0.00 | 0.00 | 41 | 1009.1 |
| 20260505040544 | 55 | 46 | 1.0 | 6.0 | 0.00 | 0.00 | 0.00 | 42 | 1008.9 |
| 20260505040100 | 55 | 87 | 2.0 | 8.0 | 0.00 | 0.00 | 0.00 | 42 | 1008.9 |
| 20260505035546 | 56 | 309 | 3.0 | 8.0 | 0.00 | 0.00 | 0.00 | 41 | 1008.9 |
| 20260505035041 | 56 | 31 | 2.0 | 10.0 | 0.00 | 0.00 | 0.00 | 41 | 1008.8 |
| 20260505034553 | 56 | 52 | 3.0 | 10.0 | 0.00 | 0.00 | 0.00 | 41 | 1009.0 |
| 20260505034045 | 56 | 16 | 3.0 | 10.0 | 0.00 | 0.00 | 0.00 | 41 | 1008.8 |
| 20260505033542 | 56 | 310 | 2.0 | 10.0 | 0.00 | 0.00 | 0.00 | 41 | 1008.5 |
| 20260505033051 | 56 | 58 | 4.0 | 10.0 | 0.00 | 0.00 | 0.00 | 41 | 1008.2 |
| 20260505032542 | 56 | 40 | 5.0 | 9.0 | 0.00 | 0.00 | 0.00 | 40 | 1008.1 |
| 20260505032042 | 56 | 37 | 3.0 | 12.0 | 0.00 | 0.00 | 0.00 | 40 | 1008.3 |
| 20260505031556 | 56 | 46 | 3.0 | 12.0 | 0.00 | 0.00 | 0.00 | 41 | 1008.5 |
| 20260505031044 | 57 | 46 | 4.0 | 13.0 | 0.00 | 0.00 | 0.00 | 40 | 1008.2 |
| 20260505030545 | 57 | 37 | 5.0 | 13.0 | 0.00 | 0.00 | 0.00 | 41 | 1008.0 |
| 20260505030057 | 57 | 15 | 4.0 | 12.0 | 0.00 | 0.00 | 0.00 | 41 | 1008.1 |
| 20260505025542 | 57 | 45 | 5.0 | 12.0 | 0.00 | 0.00 | 0.00 | 41 | 1007.9 |
| 20260505025045 | 57 | 49 | 5.0 | 10.0 | 0.00 | 0.00 | 0.00 | 41 | 1008.0 |
| 20260505024556 | 57 | 340 | 5.0 | 10.0 | 0.00 | 0.00 | 0.00 | 41 | 1007.8 |
| 20260505024042 | 57 | 39 | 4.0 | 12.0 | 0.00 | 0.00 | 0.00 | 40 | 1007.5 |
| 20260505023544 | 58 | 263 | 5.0 | 12.0 | 0.00 | 0.00 | 0.00 | 40 | 1007.5 |
| 20260505023056 | 58 | 36 | 4.0 | 9.0 | 0.00 | 0.00 | 0.00 | 40 | 1007.2 |
| 20260505022542 | 58 | 42 | 4.0 | 12.0 | 0.00 | 0.00 | 0.00 | 40 | 1007.2 |
| 20260505022042 | 58 | 53 | 3.0 | 12.0 | 0.00 | 0.00 | 0.00 | 41 | 1007.3 |
| 20260505021557 | 58 | 29 | 4.0 | 11.0 | 0.00 | 0.00 | 0.00 | 41 | 1006.7 |
| 20260505021042 | 58 | 43 | 3.0 | 11.0 | 0.00 | 0.00 | 0.00 | 41 | 1006.6 |
| 20260505020542 | 58 | 39 | 4.0 | 11.0 | 0.00 | 0.00 | 0.00 | 41 | 1006.9 |
| 20260505015543 | 59 | 88 | 4.0 | 12.0 | 0.00 | 0.00 | 0.00 | 40 | 1006.9 |
| 20260505015045 | 60 | 333 | 4.0 | 9.0 | 0.00 | 0.00 | 0.00 | 39 | 1006.4 |
| 20260505014554 | 60 | 9 | 4.0 | 10.0 | 0.00 | 0.00 | 0.00 | 38 | 1006.4 |
| 20260505014041 | 61 | 37 | 4.0 | 14.0 | 0.00 | 0.00 | 0.00 | 38 | 1006.2 |
| 20260505013543 | 61 | 49 | 4.0 | 14.0 | 0.00 | 0.00 | 0.00 | 37 | 1006.0 |
| 20260505013057 | 61 | 32 | 5.0 | 13.0 | 0.00 | 0.00 | 0.00 | 37 | 1006.1 |
| 20260505012543 | 62 | 315 | 4.0 | 10.0 | 0.00 | 0.00 | 0.00 | 36 | 1005.9 |
| 20260505012041 | 62 | 343 | 3.0 | 15.0 | 0.00 | 0.00 | 0.00 | 36 | 1006.0 |
| 20260505011553 | 62 | 55 | 4.0 | 15.0 | 0.00 | 0.00 | 0.00 | 35 | 1005.9 |
| 20260505011042 | 63 | 49 | 7.0 | 15.0 | 0.00 | 0.00 | 0.00 | 34 | 1005.8 |
| 20260505010542 | 64 | 302 | 5.0 | 10.0 | 0.00 | 0.00 | 0.00 | 33 | 1005.7 |
| 20260505010112 | 64 | 5 | 4.0 | 9.0 | 0.00 | 0.00 | 0.00 | 33 | 1005.5 |
| 20260505005541 | 65 | 310 | 3.0 | 9.0 | 0.00 | 0.00 | 0.00 | 33 | 1005.3 |
| 20260505005042 | 65 | 36 | 4.0 | 9.0 | 0.00 | 0.00 | 0.00 | 33 | 1005.2 |
| 20260505004553 | 65 | 349 | 4.0 | 9.0 | 0.00 | 0.00 | 0.00 | 32 | 1005.2 |
| 20260505004041 | 66 | 269 | 4.0 | 9.0 | 0.00 | 0.00 | 0.00 | 32 | 1005.1 |
| 20260505003541 | 66 | 17 | 3.0 | 17.0 | 0.00 | 0.00 | 0.00 | 32 | 1004.8 |
| 20260505003057 | 67 | 33 | 5.0 | 17.0 | 0.00 | 0.00 | 0.00 | 31 | 1004.8 |
| 20260505002541 | 68 | 39 | 5.0 | 11.0 | 0.00 | 0.00 | 0.00 | 31 | 1004.9 |
| 20260505002044 | 69 | 44 | 4.0 | 11.0 | 0.00 | 0.00 | 0.00 | 32 | 1004.6 |
| 20260505001600 | 69 | 51 | 3.0 | 11.0 | 0.00 | 0.00 | 0.00 | 32 | 1004.6 |
| 20260505001044 | 69 | 18 | 4.0 | 10.0 | 0.00 | 0.00 | 0.00 | 31 | 1004.6 |
| 20260505000546 | 69 | 6 | 3.0 | 12.0 | 0.00 | 0.00 | 0.00 | 31 | 1004.6 |
| 20260505000057 | 69 | 27 | 3.0 | 12.0 | 0.00 | 0.00 | 0.00 | 31 | 1004.7 |
| 20260504235545 | 69 | 325 | 4.0 | 14.0 | 0.00 | 0.00 | 0.00 | 30 | 1004.7 |
| 20260504235042 | 70 | 37 | 6.0 | 14.0 | 0.00 | 0.00 | 0.00 | 30 | 1004.5 |
| 20260504234557 | 71 | 53 | 5.0 | 11.0 | 0.00 | 0.00 | 0.00 | 29 | 1004.5 |
| 20260504234045 | 71 | 66 | 4.0 | 12.0 | 0.00 | 0.00 | 0.00 | 29 | 1004.4 |
| 20260504233542 | 71 | 4 | 4.0 | 12.0 | 0.00 | 0.00 | 0.00 | 30 | 1004.4 |
| 20260504233107 | 71 | 42 | 2.0 | 13.0 | 0.00 | 0.00 | 0.00 | 30 | 1004.4 |
| 20260504232541 | 72 | 44 | 5.0 | 13.0 | 0.00 | 0.00 | 0.00 | 29 | 1004.2 |
| 20260504232043 | 72 | 37 | 5.0 | 11.0 | 0.00 | 0.00 | 0.00 | 28 | 1004.1 |
| 20260504231552 | 73 | 47 | 2.0 | 9.0 | 0.00 | 0.00 | 0.00 | 28 | 1004.0 |
| 20260504231041 | 73 | 49 | 4.0 | 9.0 | 0.00 | 0.00 | 0.00 | 28 | 1004.0 |
| 20260504230541 | 74 | 38 | 3.0 | 9.0 | 0.00 | 0.00 | 0.00 | 28 | 1003.8 |
| 20260504230057 | 74 | 53 | 3.0 | 12.0 | 0.00 | 0.00 | 0.00 | 28 | 1003.6 |
| 20260504225545 | 74 | 39 | 4.0 | 12.0 | 0.00 | 0.00 | 0.00 | 27 | 1003.5 |
| 20260504225042 | 75 | 59 | 4.0 | 8.0 | 0.00 | 0.00 | 0.00 | 29 | 1003.4 |
| 20260504224554 | 75 | 37 | 2.0 | 9.0 | 0.00 | 0.00 | 0.00 | 30 | 1003.2 |
| 20260504224043 | 75 | 35 | 4.0 | 10.0 | 0.00 | 0.00 | 0.00 | 28 | 1003.1 |
| 20260504223542 | 76 | 72 | 4.0 | 10.0 | 0.00 | 0.00 | 0.00 | 30 | 1003.1 |
| 20260504223058 | 76 | 48 | 3.0 | 9.0 | 0.00 | 0.00 | 0.00 | 28 | 1002.9 |
| 20260504222541 | 76 | 240 | 5.0 | 9.0 | 0.00 | 0.00 | 0.00 | 27 | 1002.7 |
| 20260504222041 | 76 | 12 | 4.0 | 10.0 | 0.00 | 0.00 | 0.00 | 27 | 1002.6 |
| 20260504221550 | 76 | 51 | 5.0 | 10.0 | 0.00 | 0.00 | 0.00 | 28 | 1002.5 |
| 20260504221042 | 77 | 15 | 4.0 | 7.0 | 0.00 | 0.00 | 0.00 | 28 | 1002.3 |
| 20260504220542 | 77 | 6 | 4.0 | 8.0 | 0.00 | 0.00 | 0.00 | 29 | 1002.3 |
| 20260504220058 | 77 | 30 | 3.0 | 8.0 | 0.00 | 0.00 | 0.00 | 29 | 1002.2 |
| 20260504215543 | 77 | 123 | 4.0 | 8.0 | 0.00 | 0.00 | 0.00 | 31 | 1002.2 |
| 20260504215042 | 78 | 338 | 3.0 | 8.0 | 0.00 | 0.00 | 0.00 | 30 | 1002.2 |
| 20260504214556 | 78 | 37 | 2.0 | 12.0 | 0.00 | 0.00 | 0.00 | 29 | 1002.2 |
| 20260504214045 | 78 | 43 | 3.0 | 12.0 | 0.00 | 0.00 | 0.00 | 29 | 1002.2 |
| 20260504213545 | 79 | 31 | 4.0 | 12.0 | 0.00 | 0.00 | 0.00 | 29 | 1002.2 |
| 20260504213047 | 79 | 284 | 1.0 | 9.0 | 0.00 | 0.00 | 0.00 | 33 | 1002.2 |
| 20260504212544 | 78 | 48 | 3.0 | 9.0 | 0.00 | 0.00 | 0.00 | 31 | 1002.0 |
| 20260504212048 | 78 | 26 | 3.0 | 11.0 | 0.00 | 0.00 | 0.00 | 30 | 1002.1 |
| 20260504211551 | 79 | 79 | 3.0 | 11.0 | 0.00 | 0.00 | 0.00 | 32 | 1002.0 |
| 20260504211046 | 79 | 352 | 3.0 | 6.0 | 0.00 | 0.00 | 0.00 | 31 | 1001.9 |
| 20260504210545 | 79 | 354 | 2.0 | 6.0 | 0.00 | 0.00 | 0.00 | 32 | 1002.1 |
| 20260504210054 | 79 | 16 | 2.0 | 6.0 | 0.00 | 0.00 | 0.00 | 32 | 1002.0 |
| 20260504205540 | 79 | 35 | 3.0 | 7.0 | 0.00 | 0.00 | 0.00 | 32 | 1001.9 |
| 20260504205042 | 79 | 30 | 3.0 | 7.0 | 0.00 | 0.00 | 0.00 | 34 | 1001.9 |
| 20260504204556 | 80 | 242 | 1.0 | 9.0 | 0.00 | 0.00 | 0.00 | 31 | 1001.8 |
| 20260504204043 | 80 | 287 | 1.0 | 9.0 | 0.00 | 0.00 | 0.00 | 32 | 1001.9 |
| 20260504203541 | 80 | 328 | 1.0 | 7.0 | 0.00 | 0.00 | 0.00 | 31 | 1001.7 |
| 20260504203103 | 80 | 297 | 3.0 | 14.0 | 0.00 | 0.00 | 0.00 | 31 | 1001.8 |
| 20260504202543 | 80 | 278 | 3.0 | 14.0 | 0.00 | 0.00 | 0.00 | 31 | 1001.8 |
| 20260504202042 | 80 | 18 | 4.0 | 14.0 | 0.00 | 0.00 | 0.00 | 30 | 1001.8 |
| 20260504201555 | 80 | 278 | 4.0 | 14.0 | 0.00 | 0.00 | 0.00 | 30 | 1001.8 |
| 20260504201041 | 81 | 226 | 5.0 | 14.0 | 0.00 | 0.00 | 0.00 | 30 | 1001.8 |
| 20260504200542 | 81 | 6 | 2.0 | 8.0 | 0.00 | 0.00 | 0.00 | 31 | 1001.8 |
| 20260504200046 | 81 | 344 | 2.0 | 10.0 | 0.00 | 0.00 | 0.00 | 30 | 1001.6 |
| 20260504195541 | 81 | 250 | 2.0 | 10.0 | 0.00 | 0.00 | 0.00 | 29 | 1001.7 |
| 20260504195042 | 82 | 267 | 2.0 | 9.0 | 0.00 | 0.00 | 0.00 | 30 | 1001.6 |
| 20260504194546 | 82 | 278 | 3.0 | 9.0 | 0.00 | 0.00 | 0.00 | 30 | 1001.7 |
| 20260504194042 | 81 | 47 | 2.0 | 12.0 | 0.00 | 0.00 | 0.00 | 30 | 1001.6 |
| 20260504193542 | 82 | 56 | 4.0 | 12.0 | 0.00 | 0.00 | 0.00 | 29 | 1001.6 |
| 20260504193051 | 82 | 61 | 2.0 | 8.0 | 0.00 | 0.00 | 0.00 | 30 | 1001.5 |
| 20260504192545 | 82 | 283 | 3.0 | 9.0 | 0.00 | 0.00 | 0.00 | 27 | 1001.4 |
| 20260504192041 | 82 | 287 | 4.0 | 9.0 | 0.00 | 0.00 | 0.00 | 27 | 1001.4 |
| 20260504191550 | 83 | 22 | 3.0 | 9.0 | 0.00 | 0.00 | 0.00 | 27 | 1001.3 |
| 20260504191042 | 83 | 24 | 2.0 | 10.0 | 0.00 | 0.00 | 0.00 | 26 | 1001.4 |
| 20260504190543 | 82 | 0 | 1.0 | 10.0 | 0.00 | 0.00 | 0.00 | 28 | 1001.4 |
| 20260504190112 | 82 | 39 | 3.0 | 10.0 | 0.00 | 0.00 | 0.00 | 28 | 1001.3 |
| 20260504185541 | 83 | 210 | 2.0 | 6.0 | 0.00 | 0.00 | 0.00 | 27 | 1001.3 |
| 20260504185040 | 82 | 278 | 1.0 | 11.0 | 0.00 | 0.00 | 0.00 | 28 | 1001.1 |
| 20260504184550 | 82 | 243 | 2.0 | 13.0 | 0.00 | 0.00 | 0.00 | 28 | 1001.2 |
| 20260504184043 | 81 | 266 | 2.0 | 13.0 | 0.00 | 0.00 | 0.00 | 28 | 1001.3 |
| 20260504183542 | 81 | 297 | 3.0 | 10.0 | 0.00 | 0.00 | 0.00 | 26 | 1001.5 |
| 20260504183050 | 81 | 275 | 3.0 | 10.0 | 0.00 | 0.00 | 0.00 | 28 | 1001.3 |
| 20260504182544 | 81 | 277 | 3.0 | 8.0 | 0.00 | 0.00 | 0.00 | 28 | 1001.5 |
| 20260504182045 | 81 | 261 | 3.0 | 11.0 | 0.00 | 0.00 | 0.00 | 29 | 1001.5 |
| 20260504181555 | 81 | 272 | 4.0 | 11.0 | 0.00 | 0.00 | 0.00 | 26 | 1001.6 |
| 20260504181045 | 81 | 356 | 1.0 | 8.0 | 0.00 | 0.00 | 0.00 | 29 | 1001.4 |
| 20260504180549 | 81 | 41 | 3.0 | 8.0 | 0.00 | 0.00 | 0.00 | 27 | 1001.6 |
| 20260504180051 | 81 | 319 | 2.0 | 10.0 | 0.00 | 0.00 | 0.00 | 26 | 1001.6 |
| 20260504175545 | 81 | 44 | 2.0 | 10.0 | 0.00 | 0.00 | 0.00 | 29 | 1001.7 |
| 20260504175045 | 80 | 285 | 2.0 | 7.0 | 0.00 | 0.00 | 0.00 | 30 | 1001.8 |
| 20260504174558 | 80 | 0 | 1.0 | 9.0 | 0.00 | 0.00 | 0.00 | 31 | 1001.7 |
| 20260504174045 | 79 | 210 | 3.0 | 9.0 | 0.00 | 0.00 | 0.00 | 30 | 1001.8 |
| 20260504173544 | 79 | 335 | 3.0 | 8.0 | 0.00 | 0.00 | 0.00 | 31 | 1001.8 |
| 20260504173052 | 79 | 302 | 1.0 | 6.0 | 0.00 | 0.00 | 0.00 | 31 | 1001.9 |
| 20260504172544 | 79 | 276 | 2.0 | 6.0 | 0.00 | 0.00 | 0.00 | 31 | 1001.9 |
| 20260504172045 | 79 | 329 | 1.0 | 9.0 | 0.00 | 0.00 | 0.00 | 33 | 1001.9 |
| 20260504171549 | 78 | 262 | 1.0 | 10.0 | 0.00 | 0.00 | 0.00 | 34 | 1002.0 |
| 20260504171043 | 78 | 269 | 3.0 | 10.0 | 0.00 | 0.00 | 0.00 | 35 | 1002.0 |
| 20260504170541 | 78 | 279 | 2.0 | 7.0 | 0.00 | 0.00 | 0.00 | 34 | 1002.0 |
| 20260504151045 | 68 | 0 | 0.0 | 2.0 | 0.00 | 0.00 | 0.00 | 43 | 1002.1 |
| 20260504150542 | 68 | 269 | 0.0 | 2.0 | 0.00 | 0.00 | 0.00 | 45 | 1002.1 |
| 20260504141042 | 63 | 0 | 1.0 | 9.0 | 0.00 | 0.00 | 0.00 | 51 | 1002.5 |
| 20260504140542 | 62 | 262 | 1.0 | 7.0 | 0.00 | 0.00 | 0.00 | 52 | 1002.6 |
| 20260504130542 | 52 | 0 | 0.0 | 0.0 | 0.00 | 0.00 | 0.00 | 78 | 1002.1 |
| 20260504110544 | 48 | 0 | 0.0 | 0.0 | 0.00 | 0.00 | 0.00 | 80 | 1001.9 |
| 20260504100543 | 48 | 0 | 0.0 | 0.0 | 0.00 | 0.00 | 0.00 | 79 | 1002.2 |
| 20260504081600 | 49 | 0 | 0.0 | 0.0 | 0.00 | 0.00 | 0.00 | 74 | 1003.7 |
| 20260504081044 | 50 | 0 | 0.0 | 0.0 | 0.00 | 0.00 | 0.00 | 73 | 1003.8 |
| 20260504080545 | 50 | 0 | 0.0 | 0.0 | 0.00 | 0.00 | 0.00 | 72 | 1003.9 |